TimeCDT,TemperatureF,Dew PointF,Humidity,Sea Level PressureIn,VisibilityMPH,Wind Direction,Wind SpeedMPH,Gust SpeedMPH,PrecipitationIn,Events,Conditions,WindDirDegrees,DateUTC
12:15 AM,59.0,46.4,63,30.03,10.0,Calm,Calm,-,N/A,,Clear,0,2013-10-09 05:15:00
12:35 AM,55.4,44.6,67,30.03,10.0,Calm,Calm,-,N/A,,Clear,0,2013-10-09 05:35:00
12:55 AM,57.2,46.4,67,30.03,10.0,Calm,Calm,-,N/A,,Clear,0,2013-10-09 05:55:00
1:15 AM,57.2,46.4,67,30.03,10.0,Calm,Calm,-,N/A,,Clear,0,2013-10-09 06:15:00
1:35 AM,55.4,44.6,67,30.03,10.0,WNW,3.5,-,N/A,,Clear,290,2013-10-09 06:35:00
1:55 AM,55.4,46.4,72,30.03,10.0,WNW,5.8,-,N/A,,Clear,290,2013-10-09 06:55:00
2:15 AM,53.6,44.6,72,30.03,10.0,WNW,4.6,-,N/A,,Clear,300,2013-10-09 07:15:00
2:35 AM,53.6,44.6,72,30.03,10.0,WNW,3.5,-,N/A,,Clear,300,2013-10-09 07:35:00
2:55 AM,53.6,46.4,77,30.03,10.0,WNW,3.5,-,N/A,,Clear,300,2013-10-09 07:55:00
3:15 AM,55.4,46.4,72,30.02,10.0,WNW,4.6,-,N/A,,Clear,300,2013-10-09 08:15:00
3:35 AM,51.8,44.6,76,30.02,10.0,Calm,Calm,-,N/A,,Clear,0,2013-10-09 08:35:00
3:55 AM,51.8,44.6,76,30.02,10.0,Calm,Calm,-,N/A,,Clear,0,2013-10-09 08:55:00
4:15 AM,50.0,44.6,82,30.02,10.0,ENE,4.6,-,N/A,,Clear,70,2013-10-09 09:15:00
4:35 AM,51.8,44.6,76,30.03,10.0,Calm,Calm,-,N/A,,Clear,0,2013-10-09 09:35:00
4:55 AM,51.8,44.6,76,30.03,10.0,Calm,Calm,-,N/A,,Clear,0,2013-10-09 09:55:00
5:15 AM,51.8,44.6,76,30.03,10.0,Calm,Calm,-,N/A,,Clear,0,2013-10-09 10:15:00
5:35 AM,51.8,44.6,76,30.04,10.0,NW,3.5,-,N/A,,Clear,320,2013-10-09 10:35:00
5:55 AM,51.8,44.6,76,30.04,10.0,NW,3.5,-,N/A,,Clear,320,2013-10-09 10:55:00
6:15 AM,51.8,44.6,76,30.04,10.0,NW,3.5,-,N/A,,Clear,320,2013-10-09 11:15:00
6:35 AM,51.8,44.6,76,30.05,10.0,Calm,Calm,-,N/A,,Clear,0,2013-10-09 11:35:00
6:53 AM,51.8,44.6,76,30.05,10.0,Calm,Calm,-,N/A,,Clear,0,2013-10-09 11:53:00
7:55 AM,51.8,46.4,82,30.06,10.0,Calm,Calm,-,N/A,,Clear,0,2013-10-09 12:55:00
8:46 AM,59.0,53.6,82,30.08,10.0,NE,3.5,-,N/A,,Clear,40,2013-10-09 13:46:00
9:45 AM,66.2,57.2,73,30.09,10.0,NE,3.5,-,N/A,,Clear,40,2013-10-09 14:45:00
10:55 AM,71.6,59.0,64,30.10,10.0,South,5.8,-,N/A,,Clear,170,2013-10-09 15:55:00
11:53 AM,77.0,66.2,69,30.09,10.0,SSE,11.5,-,N/A,,Clear,150,2013-10-09 16:53:00
12:46 PM,78.8,59.0,51,30.08,10.0,South,8.1,-,N/A,,Clear,170,2013-10-09 17:46:00
1:45 PM,80.6,60.8,51,30.05,10.0,SE,11.5,-,N/A,,Clear,130,2013-10-09 18:45:00
2:53 PM,82.4,57.2,42,30.02,10.0,South,9.2,16.1,N/A,,Clear,190,2013-10-09 19:53:00
3:53 PM,82.4,57.2,42,30.00,10.0,SE,8.1,-,N/A,,Clear,130,2013-10-09 20:53:00
5:49 PM,80.6,55.4,42,29.98,10.0,SE,11.5,-,N/A,,Clear,140,2013-10-09 22:49:00
6:47 PM,78.8,55.4,44,29.98,10.0,SE,8.1,-,N/A,,Clear,140,2013-10-09 23:47:00
6:55 PM,77.0,55.4,47,29.98,10.0,SE,8.1,-,N/A,,Clear,140,2013-10-09 23:55:00
7:15 PM,73.4,57.2,57,29.98,10.0,SE,5.8,-,N/A,,Clear,140,2013-10-10 00:15:00
7:35 PM,69.8,57.2,64,29.98,10.0,SE,5.8,-,N/A,,Clear,130,2013-10-10 00:35:00
7:55 PM,69.8,57.2,64,29.99,10.0,ESE,8.1,-,N/A,,Clear,120,2013-10-10 00:55:00
8:15 PM,66.2,57.2,73,29.99,10.0,ESE,6.9,-,N/A,,Clear,120,2013-10-10 01:15:00
8:35 PM,66.2,55.4,68,30.00,10.0,ESE,8.1,-,N/A,,Clear,120,2013-10-10 01:35:00
8:55 PM,66.2,55.4,68,30.00,10.0,ESE,8.1,-,N/A,,Clear,120,2013-10-10 01:55:00
9:15 PM,66.2,55.4,68,30.01,10.0,SE,8.1,-,N/A,,Clear,130,2013-10-10 02:15:00
9:35 PM,69.8,55.4,60,30.01,10.0,SE,9.2,-,N/A,,Clear,130,2013-10-10 02:35:00
9:55 PM,69.8,57.2,64,30.02,10.0,SE,8.1,-,N/A,,Clear,130,2013-10-10 02:55:00
10:15 PM,69.8,57.2,64,30.03,10.0,SE,8.1,-,N/A,,Clear,140,2013-10-10 03:15:00
10:35 PM,69.8,57.2,64,30.04,10.0,SSE,8.1,-,N/A,,Clear,150,2013-10-10 03:35:00
10:55 PM,69.8,57.2,64,30.04,10.0,SSE,9.2,-,N/A,,Clear,150,2013-10-10 03:55:00
11:15 PM,68.0,57.2,68,30.05,10.0,SSE,8.1,-,N/A,,Clear,150,2013-10-10 04:15:00
11:35 PM,66.2,57.2,73,30.05,10.0,SSE,6.9,-,N/A,,Clear,160,2013-10-10 04:35:00
11:55 PM,64.4,57.2,77,30.04,10.0,SSE,5.8,-,N/A,,Clear,150,2013-10-10 04:55:00